Weather in Verkh-Chebula

Russia / Kemerovo Oblast     56°02′02″N   87°37′12″E
temp.,
°C
wind,
m/s
gust,
m/s
humid.,
%
clouds,
%
prec.,
mm/h
press.,
hPa
HPBL,
m
15 may, sat
sat1501:00+7w3854100 0.0 1021175
04:00+9sw4954100 0.0 1020261
07:00+11sw8164874 0.0 1018607
10:00+14sw91645100 0.1 1017778
13:00+19wsw9134298 0.1 10161283
16:00+21sw8144198 0.0 10151774
19:00+21wsw81447100 0.0 10131238
22:00+14nnw4895100 9.6 1014348
16 may, sun
sun1601:00+13w2595100 13.1 1015147
04:00+11nne2494100 0.0 1015241
07:00+10e2392100 0.1 1016237
10:00+12e338997 0.0 1014324
13:00+13ne3388100 0.1 1012207
16:00+12ene2294100 3.1 1010351
19:00+11ne3394100 3.8 1009214
22:00+8ne4796100 1.3 1010346
17 may, mon
mon1701:00+7ne4794100 1.6 1012397
04:00+6nne379296 0.0 1014351
07:00+6nne46815 0.0 1016295
10:00+10ne345326 0.0 1017828
13:00+12nne234614 0.0 10181182
16:00+14nnw2345100 0.0 10171541
19:00+13nnw125598 0.0 1016714
22:00+9sse116656 0.0 101610
18 may, tue
tue1801:00+10sse3769100 0.0 1013178
04:00+9ssw51394100 5.9 1010519
07:00+10sw51388100 15.1 1006614
10:00+13wsw51292100 0.4 1005723
13:00+14wnw488973 2.6 1004403
16:00+15nnw5782100 0.9 1004844
19:00+13nnw478567 1.1 1006689
22:00+9n2393100 0.0 1007347
19 may, wed
wed1901:00+8ne2296100 1.0 1006201
04:00+7nne4798100 5.6 1004355
07:00+7ne4997100 13.7 1005513
10:00+8nne4682100 0.2 1006841
13:00+11n565199 0.3 10071534
16:00+12n6740100 0.0 10072262
19:00+12nne4847100 0.1 1006874
22:00+8n51249100 0.0 1007522